GEO-KOMPSAT-2A          
1 43823U 18100A   19258.42469463 -.00000354  00000-0  00000+0 0  9995
2 43823   0.0106 157.8196 0001611 333.2308 144.1656  1.00270287  2924
GSAT-11                 
1 43824U 18100B   19258.72132816 -.00000086  00000-0  00000+0 0  9990
2 43824   0.0676 261.5206 0006684 221.0297 205.4594  1.00272197  2898
ARIANE 5 R/B            
1 43825U 18100C   19258.51243372  .00008132  00000-0  10018-2 0  9990
2 43825   3.9901  80.5476 7247694  65.4886 351.4970  2.34181069  6584
ARIANE 5 DEB [SYLDA]    
1 43826U 18100D   19257.83938344  .00145162  83962-6  77544-2 0  9991
2 43826   3.8897  74.6088 6934101  77.3791  95.4731  2.76582942  6821